DELTA 1 DEB, 2154

Orbit data source: Space-Track

DELTA 1 DEB, 2154 is space debris in SSO originally from a launch on Thu, 03 Feb 1966 UTC launched from the Air Force Eastern Test Range (AFETR). Debris objects in space refer to the collection of defunct objects orbiting the Earth. Examples of debris include non-operational satellites, rocket bodies, and fragments generated from explosions, collisions, or faulty payload assembly.

Loading next visibility...
Identifier
2154, 1966-008E
Orbit
SSO
Country
Flag of USUS
Related business
Manufacturer
Unknown
Mission
Spacecraft
Bus & Motor
Unknown
Mass
Unknown
Launch date (UTC)
1966-02-03 (60 years ago)
Launch vehicle
Unknown
Launch site
Air Force Eastern Test Range (AFETR)
Object type
Payload
Rocket body
Debris
Shape & HBR
Unknown shape, 0.1 m
Radar Cross Section
Small (<0.1 m²)

Expand to show TLE details & history
Last TLE update: 17 hours ago

TLE from 17 hours ago
0 DELTA 1 DEB
1 02154U 66008E   26129.28039278  .00000869  00000-0  14464-3 0  9996
2 02154  97.8693 246.7019 0047581  73.2710 287.3711 14.71736837173298
Epoch: 2026-05-09T06:43Z
TLE epoch observation values (Epoch: 2026-05-09T06:43:45.936Z)
Latitude
-0.00005°
Longitude
-81.33958°
Altitude
648.692 km
Speed
7.539 km/s
True Right ascension
16h 26m 48s
True Declination
0° 00' 00"
Sunlit
Object was in full shadow at epoch
Visualization orbit readout
Latitude
Unknown
Longitude
Unknown
Altitude
Unknown
Speed
Unknown
Apparent Right ascension
Unknown
Apparent Declination
Unknown
Sunlit
N/A
Visualization observer readout
Local Sidereal Time
07:42:11
Azimuth
Unknown
Elevation
Unknown
Doppler factor
Unknown
Orbital elements
Apogee altitude
686.032 km
Perigee altitude
619.126 km
Semi-major axis
7,030.716 km
Eccentricity
0.00476
Inclination
97.8693°
RAAN
246.7019°
Arg. of periapsis
73.271°
True anomaly
286.84981°
Mean anomaly
287.3711°
Eccentric anomaly
287.11055°
Mean motion
3.68166 °/min
Orbital period
97.78 mins
BSTAR
0.00014464
Loading maneuver chart data...
Computing Atmospheric mass density...
Loading historical data...
Loading historical data...
Loading historical data...
Loading historical data...
Loading historical data...
Loading historical data...
Loading historical data...
Other satellites on launch #8 in the year 1966 (1966-02-03 UTC)

Documentation

Showing up to 5 results
|